CAPE
1030 805 1095 1157 647 749 512 434 290 221 291 409 412 339 210 407 482 280 141 64 25 4 0 4 25 88 191 398 220 254 237 569 512 170 57 515 1105 747 496 486 535 581 560 490 408 546 508 559 635 746 772 774 793 927 935 942 1065 1118 1219 1293 1296 1309 1329 1369 1360 1377 1342 1355 1342 1312 1287 1228 1193 1098
1302 778 1092 1336 455 874 738 570 476 483 478 400 366 458 232 442 391 426 344 281 30 42 0 0 100 586 342 447 390 414 349 377 148 226 339 412 768 266 56 244 328 331 346 236 127 72 149 194 233 326 364 440 512 661 732 928 931 1037 1133 1223 1321 1367 1410 1438 1437 1412 1424 1416 1403 1340 1323 1299 1222 1166
1516 1114 1082 1366 1097 898 1083 1033 684 616 786 605 516 536 546 437 507 442 342 346 332 2 39 0 212 420 608 312 348 272 412 254 30 130 287 348 765 385 301 53 98 119 105 65 16 2 1 0 6 88 178 290 586 591 762 817 937 1107 1173 1177 1184 1158 1144 1118 1086 1066 1105 1206 1293 1341 1278 1295 1260 1192
1806 1314 1185 1452 1486 1379 1049 1031 806 702 950 655 489 631 648 615 447 588 637 410 448 123 1 21 52 160 442 218 225 412 266 360 0 210 385 1172 0 70 214 1 10 0 4 0 0 0 0 0 0 6 72 248 495 682 789 856 946 895 856 869 841 811 772 790 817 874 911 904 961 1007 1090 1121 1183 1161
2089 1579 1238 1620 1787 1513 1350 1266 1157 772 951 713 658 623 750 619 664 565 553 688 500 644 194 82 152 138 186 217 252 378 385 671 236 62 393 726 402 98 0 135 0 0 0 0 0 0 0 0 0 10 80 214 416 592 545 572 589 552 626 700 510 503 504 484 512 595 670 677 683 712 788 882 831 929
2260 1860 1390 1320 1779 1604 1472 1402 1108 809 973 638 432 588 566 722 796 644 620 507 548 624 557 408 103 243 62 228 422 325 343 682 627 36 265 580 640 111 17 96 252 0 0 0 0 0 0 0 0 0 6 52 218 346 428 521 291 235 361 394 276 288 308 332 266 276 315 362 398 474 481 473 490 556
2546 2040 1768 1407 1497 1605 1423 1300 1154 738 998 813 357 513 608 679 547 616 648 742 530 472 716 735 476 253 375 88 447 470 453 531 614 609 389 470 550 401 336 187 93 14 0 0 0 0 0 0 0 0 0 2 40 53 75 68 70 109 112 21 12 42 97 89 54 43 77 72 84 123 146 144 152 176
2584 2260 2020 1669 1276 1586 1548 1442 1258 960 840 967 677 520 730 847 669 782 681 763 811 815 583 749 566 330 591 449 339 672 564 396 520 683 726 570 557 491 441 426 282 1256 0 4 0 0 0 0 0 0 0 0 0 0 2 8 29 35 14 0 0 0 0 0 0 0 0 0 0 0 7 24 67 62
2958 2610 2196 2000 1343 1472 1608 1581 1269 1039 900 899 911 670 864 892 817 758 1099 918 789 919 883 893 747 710 588 727 564 650 579 479 490 620 628 528 640 603 395 362 302 1098 0 0 0 0 0 0 0 0 0 0 0 0 0 4 4 1 0 0 0 0 0 0 0 0 0 0 0 0 0 0 1 1
3083 3056 2484 2194 1570 1320 1567 1562 1462 1291 968 980 1003 946 889 1040 992 926 1141 1417 1163 673 906 908 1005 889 710 678 734 787 722 708 645 728 904 857 732 810 690 480 250 526 144 121 334 17 1 0 0 0 0 0 0 0 0 1 1 0 0 0 0 0 0 0 0 0 0 0 0 0 0 0 0 0
3298 3280 2810 2400 1808 1364 1530 1603 1607 1459 1173 1171 1156 1224 1137 1086 1200 1044 1058 1410 1410 1186 864 902 982 1022 929 856 749 800 834 814 649 576 1137 1392 1260 1328 1018 932 560 629 390 141 181 176 213 137 89 0 0 0 0 0 0 0 0 0 0 0 0 0 0 0 0 0 0 0 0 0 0 0 0 0
3332 3221 2946 2454 2100 1509 1570 1684 1569 1531 1357 1367 1306 1247 1196 1213 1345 1270 1082 1238 1411 1352 1220 1094 1058 840 1147 976 808 918 996 992 917 757 704 780 1079 1513 1968 1122 722 842 1032 752 207 162 112 4 104 0 0 0 0 0 0 0 0 0 0 0 0 0 0 0 0 0 0 0 0 0 0 0 0 0
3510 3319 3061 2598 2178 2006 1601 1530 1646 1377 1371 1479 1583 1615 1441 1351 1416 1518 1264 1386 1550 1425 1392 1338 1353 1106 980 1082 1021 700 1518 1245 1119 1028 852 665 599 602 922 1196 1344 1251 1011 696 187 55 92 54 67 29 126 505 56 25 16 130 97 0 0 0 0 0 0 0 0 0 0 0 0 0 0 0 0 0
3602 3262 3026 2728 1802 1676 1438 1439 1435 1149 1114 1385 1573 1859 1577 1500 1480 1600 1436 1346 1498 1648 1543 1406 1388 1074 1138 1068 1119 986 1046 1506 1049 674 1026 1326 1462 703 616 1012 1253 1138 983 581 432 420 255 45 7 0 0 0 12 34 201 34 18 0 0 0 0 0 0 0 0 0 0 0 0 0 0 0 0 0
3646 3447 3045 2839 2280 1664 1508 1447 1406 1141 1082 1226 1372 1470 1489 1492 1570 1632 1554 1340 1454 1625 1658 1482 1287 1166 1149 1053 973 1001 961 1192 1245 837 1284 1518 1038 854 1304 1289 1421 1055 831 716 532 518 330 41 5 20 4 1 3 3 11 0 0 0 0 0 0 0 0 0 0 0 0 0 0 0 0 0 0 0
3816 3515 3240 2928 2636 2484 2298 2096 1650 1254 1039 1190 1296 1341 1287 1236 1168 1333 1677 1558 1422 1514 1453 1418 1294 1120 1163 1224 1019 740 668 960 1046 1050 996 1248 1183 1278 1077 842 768 968 662 387 275 202 68 0 0 4 0 0 2 9 4 0 0 0 0 0 0 0 0 0 0 0 0 0 0 0 0 0 0 0
3966 3656 3370 3198 2873 2635 1895 2000 2137 2068 1453 1082 1294 1303 1140 1106 1174 1048 1012 1222 1554 1350 1428 1372 1400 1190 1067 1011 1070 798 868 1112 781 946 1018 893 1218 1239 1121 816 98 396 499 224 188 23 1 0 0 0 0 0 0 1 0 0 0 0 0 0 0 0 0 0 0 0 0 0 0 0 0 0 0 0
4054 3890 3604 3422 3228 2960 2789 2378 2246 2311 2020 1724 1325 1306 1461 1629 1469 1104 962 852 822 1422 1610 1386 1379 1330 1221 1352 1126 1207 1168 901 856 1113 1206 937 1288 1298 1119 378 198 248 108 56 1 5 0 0 0 0 0 0 0 0 22 0 0 0 0 0 0 0 0 0 0 0 0 0 0 0 0 0 0 0
3764 3966 3822 3640 3428 3328 3201 2333 2285 2498 2340 2072 1764 1654 1464 1302 1365 1489 1190 928 818 965 944 1309 1376 1341 1164 1332 1116 1262 1431 1130 1169 1029 966 878 938 951 346 258 304 124 53 4 2 0 0 0 0 0 0 0 0 0 0 0 0 0 0 0 0 0 0 0 0 0 0 0 0 0 0 0 0 0
4062 3990 4021 3873 3596 3550 3498 2610 2008 2222 2591 2371 1910 1658 1513 1403 1275 1231 1106 831 594 334 339 515 804 887 856 755 1178 1144 1160 1358 1276 821 1045 919 700 630 382 1 0 1 25 34 11 0 0 0 0 0 0 0 0 0 0 0 0 0 0 0 0 0 0 0 0 0 0 0 0 0 0 0 0 0
3932 3889 3810 3820 3752 3559 3672 3012 2200 1830 2164 2564 2208 1874 1649 1461 1358 1267 1191 800 625 396 427 508 551 563 576 556 538 942 1098 1408 930 1033 746 556 263 48 0 0 0 0 8 4 5 0 0 0 0 0 0 0 0 0 0 12 0 0 0 0 0 0 0 0 0 0 0 0 0 0 0 0 0 0
3882 3859 3318 3566 3790 3758 3978 3104 2456 1844 1826 2727 2512 2116 1784 1690 1499 1358 1220 1044 710 676 728 724 705 718 742 693 606 791 915 668 650 1030 617 249 22 4 4 25 0 0 0 2 0 0 0 0 0 0 0 0 0 0 0 0 0 0 0 0 0 0 0 0 0 0 0 0 0 0 0 0 0 0
3764 3856 3422 3276 3646 3792 3672 3196 2749 2135 1935 2756 2793 2430 2058 1812 1664 1496 1358 1288 1009 924 849 849 836 830 780 719 776 601 774 433 704 444 522 168 56 6 0 0 0 0 0 0 0 0 0 0 0 0 0 0 0 0 0 0 0 0 0 0 0 0 0 0 0 0 0 0 0 0 0 0 0 0
3472 3551 3804 3230 3079 3289 3253 3286 2942 2422 1882 2412 2809 2690 2370 2199 2066 1794 1561 1644 1065 1042 956 886 808 770 712 746 726 687 620 496 332 203 178 78 2 0 0 0 0 0 0 0 0 0 0 0 0 0 0 0 0 0 0 0 0 0 0 0 0 0 0 0 0 0 0 0 0 0 0 0 0 0
3193 2950 3163 3229 3114 2974 2994 3181 3025 2655 2275 2029 2784 2893 2688 2406 2288 1861 1706 1692 1142 1069 998 888 809 792 858 794 765 726 595 393 329 231 142 2 0 0 0 0 0 0 0 0 0 0 0 0 0 0 0 0 0 0 0 0 0 0 0 0 0 0 0 0 0 1 0 0 0 0 0 0 0 0
3020 2782 3140 3196 3136 2724 2639 2792 2841 2762 2607 2209 2408 2809 2396 2157 1903 2006 2003 1510 1195 1078 992 904 870 870 858 868 744 472 352 284 288 223 128 0 0 0 0 0 0 0 0 0 0 0 0 0 0 0 0 0 0 0 0 0 0 0 0 0 0 0 0 0 0 0 0 0 0 338 7 0 0 0
3182 3101 3179 2982 2976 2634 2386 2458 2653 2683 2590 2320 2019 2223 2230 2034 1834 1831 1905 1409 1226 1114 1024 910 856 894 922 906 766 430 284 234 211 138 0 0 0 0 0 0 0 0 0 0 0 0 0 0 0 0 0 0 0 0 0 0 0 0 0 0 0 0 0 0 0 0 0 0 0 0 0 0 0 0
3255 3112 3417 3278 2914 2680 2532 2177 2339 2424 2371 2235 2032 1788 1980 1811 1736 1831 1799 1406 1268 1150 1056 976 897 938 995 919 789 504 334 49 197 71 0 0 0 0 0 0 0 0 0 0 0 0 0 0 0 0 0 0 0 0 0 0 0 0 0 0 0 0 0 0 0 0 0 0 0 0 0 0 36 673
2874 2915 2796 2687 2766 2654 2442 2094 2071 2150 2153 2092 1946 1750 1676 1590 1525 1712 1574 1291 1223 1141 1081 1023 1051 1029 994 894 795 418 246 14 0 0 0 0 0 0 0 0 0 0 0 0 0 0 0 0 0 0 0 0 0 0 0 0 0 0 0 0 0 0 0 0 0 0 0 0 0 0 0 0 0 0
2738 2638 2774 2752 2614 2555 2477 1994 1931 1927 1953 1930 1864 1716 1589 1582 1536 1631 1676 1245 1191 1158 1057 1103 1145 1076 928 830 533 447 78 9 0 0 0 0 0 0 0 0 0 0 0 0 0 0 0 0 0 0 0 0 0 0 0 0 0 0 0 0 0 0 0 0 0 0 0 2 0 0 0 0 0 0
2766 2692 2559 2478 2421 2428 2434 2234 1859 1831 1776 1713 1654 1599 1530 1556 1475 1422 1421 1284 1220 1183 1178 1237 1198 1098 939 695 420 224 128 50 0 0 0 0 0 0 0 0 0 0 0 0 0 0 0 0 0 0 0 0 0 0 0 0 0 0 0 0 0 0 0 0 0 0 0 0 0 0 0 0 0 0
2708 2762 2568 2527 2263 2322 2390 2369 2154 1764 1652 1603 1518 1474 1456 1520 1504 1438 1376 1335 1260 1223 1239 1258 1120 1044 716 551 380 268 111 1 0 0 0 0 0 0 0 0 0 0 0 0 0 0 0 0 0 0 0 0 0 0 0 0 0 0 0 0 0 0 0 0 0 0 0 0 0 0 4 0 0 0
2884 2584 2410 2050 2294 2176 2160 2240 2314 2094 1523 1546 1418 1365 1324 1454 1515 1407 1358 1350 1297 1317 1282 1254 1175 1006 638 477 345 213 74 2 0 0 0 0 0 0 0 0 0 0 0 0 0 0 0 0 0 0 0 0 0 0 0 0 0 0 0 0 0 0 0 0 0 0 0 0 0 0 0 0 0 0
2824 2661 2628 2575 2457 2294 1872 1892 2079 2158 2022 1534 1280 1196 1190 1361 1467 1363 1404 1376 1330 1290 1321 1253 1245 926 477 368 286 148 62 3 0 0 0 0 0 0 0 0 0 0 0 0 0 0 0 0 0 0 0 0 0 0 0 0 0 0 0 0 0 0 0 0 0 0 0 0 0 0 0 0 0 0
3093 2668 2666 2586 2357 2235 2062 1970 1847 2026 2120 1974 1537 1096 1140 1326 1264 1276 1344 1270 1296 1292 1288 1336 1174 764 482 384 217 131 0 0 0 0 0 0 0 0 0 0 0 0 0 0 0 0 0 0 0 0 0 0 0 0 0 0 0 0 0 0 0 0 0 0 0 0 0 0 0 0 0 0 0 0
3268 3301 3097 2819 2435 2464 2421 2006 1649 2007 2146 2084 1939 1496 1129 1172 1078 1133 1198 1206 1224 1234 1274 1332 1174 575 443 310 152 49 0 0 0 0 0 0 0 0 0 0 0 0 0 0 0 0 0 0 0 0 0 0 0 0 0 0 0 0 0 0 0 0 0 0 0 0 0 0 2 0 0 0 0 0
3030 3008 3054 3131 3075 2842 2626 2456 2310 1662 1717 1855 1839 1840 1419 1101 976 1049 1082 1168 1120 1180 1305 1374 1066 504 414 238 0 0 0 0 0 0 0 0 0 0 0 0 0 0 0 0 0 0 0 0 0 0 0 0 0 0 0 0 0 3 0 0 0 0 0 0 0 0 0 0 0 0 0 0 0 0
2814 2925 2958 3019 3072 3052 3038 2959 2792 2262 1618 1517 1700 1784 1415 1059 928 964 988 1111 1144 1226 1405 1439 764 410 326 0 0 0 0 0 0 0 0 0 0 0 0 0 0 0 0 0 0 0 0 0 0 0 0 0 0 0 0 0 0 0 16 47 0 0 0 0 0 0 0 0 0 0 0 0 0 0
2232 2401 2512 2647 2767 2900 2961 2935 2756 2638 2348 1424 1441 1649 1218 1042 844 915 1056 1102 1238 1362 1453 1139 628 401 170 20 0 0 0 0 0 0 0 0 0 0 0 0 0 0 0 0 0 0 0 0 0 0 0 0 0 0 0 0 0 0 0 0 0 0 0 0 0 0 0 0 0 0 0 0 0 0
220 1169 1776 2011 2207 2352 2600 2717 2723 2707 2775 2001 1175 1215 1211 1050 888 835 789 1086 1209 1422 1314 829 479 222 28 0 0 0 0 0 0 1 0 0 0 0 0 0 0 0 0 0 0 0 0 0 0 0 0 0 0 0 0 0 0 0 0 0 0 0 0 0 0 0 0 0 0 0 0 0 0 0
16 54 364 940 1319 1574 1828 2222 2474 2497 2344 1612 861 893 1255 1159 1012 842 930 971 1066 1190 762 240 210 34 1 0 0 0 0 0 0 0 0 0 0 0 0 0 0 0 0 0 0 0 0 0 11 0 0 0 0 0 0 0 0 0 0 0 0 0 0 0 0 0 0 0 0 0 0 0 0 0
5 6 51 358 566 707 1081 1386 1766 2132 1332 979 562 639 957 958 810 804 821 640 654 480 0 93 0 0 0 0 0 0 0 2 2 0 0 0 0 0 0 0 0 0 0 0 0 0 0 0 0 0 0 0 0 0 0 0 0 0 0 0 27 10 0 0 0 0 32 0 0 0 0 0 0 0
4 10 14 54 238 314 447 694 966 1338 985 1032 659 556 776 940 805 639 702 715 461 0 80 1 8 0 0 0 0 0 0 6 2 0 0 0 0 0 0 0 0 0 0 0 0 0 0 0 0 0 0 0 0 0 0 0 0 0 0 0 0 1 0 0 0 0 0 0 0 0 0 0 0 0
8 11 13 34 99 165 211 332 488 479 391 502 586 481 533 759 620 482 566 605 254 0 0 7 0 0 0 0 0 0 4 8 4 0 0 0 0 0 0 0 0 0 0 0 0 0 0 0 0 0 0 0 0 0 0 0 0 0 0 0 0 0 0 0 2 1 0 0 0 0 0 0 0 0
4 9 19 38 124 198 110 82 114 136 318 493 499 346 466 651 738 516 546 409 79 0 0 0 1 0 0 0 0 3 10 2 0 0 0 0 0 0 0 0 0 0 0 0 0 0 0 0 0 0 0 0 0 0 0 0 0 0 0 0 0 0 0 0 0 0 0 0 0 0 0 0 0 0
Wind_Speed
14 14 17 17 16 17 17 16 16 15 13 15 15 16 16 13 10 13 12 nan nan nan nan nan nan nan 14 15 14 16 17 22 26 23 nan 28 31 35 34 33 30 30 31 32 33 34 35 35 36 37 38 38 38 38 38 38 39 39 39 39 38 36 35 35 34 32 29 27 24 23 23 23 23 22
12 13 15 17 17 17 18 17 15 16 15 15 17 18 18 17 16 12 14 15 nan nan nan nan nan 15 16 17 15 18 18 26 25 26 27 30 33 40 nan 34 31 32 33 34 34 nan 35 37 39 40 40 40 40 39 39 39 39 39 40 40 39 38 36 34 34 33 31 30 27 25 24 23 23 22
13 13 15 17 17 18 18 17 15 15 16 16 17 18 18 19 17 15 13 12 16 nan nan nan 22 20 20 19 20 21 21 26 nan 27 30 30 40 42 36 nan nan 32 34 nan nan nan nan nan nan nan 43 41 41 39 38 37 37 37 39 39 39 39 37 36 35 33 33 32 31 29 26 25 25 24
14 13 14 17 18 18 18 17 17 15 15 16 17 18 18 19 19 17 16 14 14 16 nan nan nan 21 23 20 22 24 23 28 nan 26 29 34 nan nan 33 nan nan nan nan nan nan nan nan nan nan nan nan 43 41 38 35 34 34 35 36 37 38 38 37 37 35 34 34 33 33 32 30 27 26 25
14 14 14 16 19 19 19 18 17 17 16 16 16 17 17 18 19 20 18 17 15 17 15 nan 17 20 23 25 23 25 26 28 27 nan 28 35 34 nan nan 32 nan nan nan nan nan nan nan nan nan nan nan 43 40 36 33 32 31 32 32 33 34 34 34 34 34 33 33 33 33 32 31 30 28 27
14 15 14 15 18 20 20 19 19 17 17 16 16 17 17 18 20 20 20 19 18 19 20 18 16 21 nan 23 27 25 27 29 29 nan 30 32 33 31 nan nan 34 nan nan nan nan nan nan nan nan nan nan nan 39 35 32 31 30 30 30 31 31 32 31 31 31 31 32 32 32 32 31 30 29 29
16 15 15 15 17 18 20 20 19 19 18 17 16 18 18 19 20 22 22 22 22 21 22 24 22 21 24 nan 27 27 27 29 31 31 31 33 33 31 28 27 nan nan nan nan nan nan nan nan nan nan nan nan nan nan nan nan nan 30 29 nan nan nan nan nan nan nan nan nan nan 32 31 31 30 29
17 16 16 15 17 18 20 20 19 19 18 18 18 19 20 20 21 23 25 23 22 24 24 29 25 25 28 25 26 28 28 29 32 32 32 32 32 31 30 28 27 40 nan nan nan nan nan nan nan nan nan nan nan nan nan nan nan nan nan nan nan nan nan nan nan nan nan nan nan nan nan nan nan nan
18 18 17 16 16 18 19 20 20 20 21 20 20 21 21 21 21 22 25 26 25 25 27 28 30 25 28 26 25 28 29 31 32 34 32 33 33 32 28 27 30 42 nan nan nan nan nan nan nan nan nan nan nan nan nan nan nan nan nan nan nan nan nan nan nan nan nan nan nan nan nan nan nan nan
18 19 19 18 17 18 20 19 20 21 22 22 21 22 21 22 22 23 26 28 30 29 29 29 32 30 28 27 25 27 29 31 33 33 34 34 34 33 30 30 29 36 40 40 43 nan nan nan nan nan nan nan nan nan nan nan nan nan nan nan nan nan nan nan nan nan nan nan nan nan nan nan nan nan
19 20 21 20 19 18 20 20 21 21 23 22 23 23 22 22 24 26 26 30 31 32 32 32 31 32 30 27 27 28 30 31 32 35 35 36 36 34 32 31 31 31 36 41 47 44 44 48 nan nan nan nan nan nan nan nan nan nan nan nan nan nan nan nan nan nan nan nan nan nan nan nan nan nan
20 21 22 22 21 20 21 21 21 21 22 23 24 24 24 24 26 27 28 30 31 32 33 33 33 32 32 30 27 29 31 32 33 34 36 36 36 35 32 32 31 32 36 37 38 46 48 nan 48 nan nan nan nan nan nan nan nan nan nan nan nan nan nan nan nan nan nan nan nan nan nan nan nan nan
19 21 22 22 22 23 23 25 23 22 22 24 25 25 26 27 27 28 29 30 30 31 32 33 33 34 34 33 32 33 34 35 35 36 37 36 35 34 34 34 34 33 37 38 39 nan nan nan nan nan 45 45 nan nan nan 41 nan nan nan nan nan nan nan nan nan nan nan nan nan nan nan nan nan nan
18 20 21 22 23 26 27 28 27 25 25 25 26 27 27 28 29 29 29 30 30 31 33 33 35 36 37 36 36 36 36 35 36 36 37 37 37 34 30 32 37 38 38 39 40 39 40 nan nan nan nan nan nan nan 40 nan nan nan nan nan nan nan nan nan nan nan nan nan nan nan nan nan nan nan
19 20 20 20 25 27 29 30 31 28 27 28 28 30 29 28 29 31 31 30 31 32 32 33 33 35 37 37 38 39 38 38 38 38 38 37 37 35 34 34 36 35 38 41 39 39 40 nan nan nan nan nan nan nan nan nan nan nan nan nan nan nan nan nan nan nan nan nan nan nan nan nan nan nan
19 21 21 22 22 26 28 30 31 31 30 30 30 31 32 31 29 29 31 32 31 32 32 33 34 35 37 38 38 39 40 40 40 39 39 39 38 36 35 35 34 38 41 41 40 39 nan nan nan nan nan nan nan nan nan nan nan nan nan nan nan nan nan nan nan nan nan nan nan nan nan nan nan nan
20 22 23 23 24 24 32 31 31 32 32 31 33 33 34 33 32 30 30 30 30 32 32 33 34 36 37 39 40 40 41 42 41 41 41 40 40 37 35 34 nan 41 44 43 41 nan nan nan nan nan nan nan nan nan nan nan nan nan nan nan nan nan nan nan nan nan nan nan nan nan nan nan nan nan
22 24 25 26 26 25 30 29 32 33 33 34 33 33 32 31 31 31 32 33 30 27 31 34 35 37 39 38 40 42 42 43 42 44 43 42 40 40 36 34 36 37 42 nan nan nan nan nan nan nan nan nan nan nan nan nan nan nan nan nan nan nan nan nan nan nan nan nan nan nan nan nan nan nan
23 26 27 28 29 28 28 28 31 34 34 35 36 35 34 32 31 31 32 34 35 33 33 35 36 37 39 40 41 42 44 44 44 44 43 42 41 39 37 37 37 37 nan nan nan nan nan nan nan nan nan nan nan nan nan nan nan nan nan nan nan nan nan nan nan nan nan nan nan nan nan nan nan nan
25 26 28 30 30 31 29 30 34 36 36 36 37 37 35 34 33 31 32 35 38 36 36 37 37 38 39 41 40 43 46 47 46 46 45 44 43 42 40 nan nan nan nan nan nan nan nan nan nan nan nan nan nan nan nan nan nan nan nan nan nan nan nan nan nan nan nan nan nan nan nan nan nan nan
26 27 27 28 31 33 31 35 36 38 40 36 37 38 38 37 36 34 35 38 40 39 37 37 38 41 42 48 48 49 48 49 50 49 48 47 45 nan nan nan nan nan nan nan nan nan nan nan nan nan nan nan nan nan nan nan nan nan nan nan nan nan nan nan nan nan nan nan nan nan nan nan nan nan
28 29 30 30 29 33 33 41 40 41 41 38 37 38 39 39 38 38 38 41 42 44 47 49 49 50 52 52 55 56 55 53 53 53 51 49 nan nan nan nan nan nan nan nan nan nan nan nan nan nan nan nan nan nan nan nan nan nan nan nan nan nan nan nan nan nan nan nan nan nan nan nan nan nan
29 30 33 35 33 32 36 45 42 43 42 39 39 39 39 40 39 41 43 43 47 49 50 52 52 51 53 54 53 54 58 57 55 53 51 49 nan nan nan nan nan nan nan nan nan nan nan nan nan nan nan nan nan nan nan nan nan nan nan nan nan nan nan nan nan nan nan nan nan nan nan nan nan nan
30 30 32 36 36 36 41 46 45 44 44 41 41 42 41 40 40 44 46 43 50 51 51 53 54 54 55 55 56 55 56 55 55 52 51 nan nan nan nan nan nan nan nan nan nan nan nan nan nan nan nan nan nan nan nan nan nan nan nan nan nan nan nan nan nan nan nan nan nan nan nan nan nan nan
31 30 31 33 39 40 45 47 47 46 44 43 43 43 41 40 42 47 47 52 57 53 53 54 56 57 57 57 57 57 56 56 55 53 51 nan nan nan nan nan nan nan nan nan nan nan nan nan nan nan nan nan nan nan nan nan nan nan nan nan nan nan nan nan nan nan nan nan nan nan nan nan nan nan
34 33 33 31 41 45 48 49 51 50 47 45 43 43 43 46 50 49 49 54 53 53 53 55 56 56 56 57 57 59 60 59 59 57 53 nan nan nan nan nan nan nan nan nan nan nan nan nan nan nan nan nan nan nan nan nan nan nan nan nan nan nan nan nan nan nan nan nan nan 43 nan nan nan nan
36 37 36 35 43 49 50 52 54 54 53 50 46 49 51 53 55 53 50 55 54 53 54 56 56 57 58 60 61 63 63 62 61 59 nan nan nan nan nan nan nan nan nan nan nan nan nan nan nan nan nan nan nan nan nan nan nan nan nan nan nan nan nan nan nan nan nan nan nan nan nan nan nan nan
36 36 38 39 51 51 50 53 56 56 55 52 53 55 57 59 58 55 55 56 54 53 54 56 55 57 59 62 63 64 66 nan 65 nan nan nan nan nan nan nan nan nan nan nan nan nan nan nan nan nan nan nan nan nan nan nan nan nan nan nan nan nan nan nan nan nan nan nan nan nan nan nan nan 42
37 35 37 42 56 53 51 52 54 54 54 54 56 57 61 61 57 56 57 57 55 53 54 55 55 56 58 60 63 63 64 nan nan nan nan nan nan nan nan nan nan nan nan nan nan nan nan nan nan nan nan nan nan nan nan nan nan nan nan nan nan nan nan nan nan nan nan nan nan nan nan nan nan nan
38 35 40 46 57 56 54 53 52 51 51 52 56 58 60 56 56 56 58 59 57 54 55 56 55 56 59 63 65 64 nan nan nan nan nan nan nan nan nan nan nan nan nan nan nan nan nan nan nan nan nan nan nan nan nan nan nan nan nan nan nan nan nan nan nan nan nan nan nan nan nan nan nan nan
43 44 47 59 59 59 58 56 55 54 57 56 55 56 55 56 56 57 58 59 57 55 55 56 56 58 62 66 68 70 71 nan nan nan nan nan nan nan nan nan nan nan nan nan nan nan nan nan nan nan nan nan nan nan nan nan nan nan nan nan nan nan nan nan nan nan nan nan nan nan nan nan nan nan
45 52 70 73 66 63 64 59 59 59 61 59 59 58 58 58 58 58 61 61 58 55 56 59 60 62 65 66 71 73 74 nan nan nan nan nan nan nan nan nan nan nan nan nan nan nan nan nan nan nan nan nan nan nan nan nan nan nan nan nan nan nan nan nan nan nan nan nan nan nan nan nan nan nan
54 65 69 69 70 66 63 63 63 64 66 64 63 64 62 61 61 59 58 59 59 59 61 65 66 68 69 69 73 75 nan nan nan nan nan nan nan nan nan nan nan nan nan nan nan nan nan nan nan nan nan nan nan nan nan nan nan nan nan nan nan nan nan nan nan nan nan nan nan nan nan nan nan nan
61 65 61 63 67 69 67 67 67 65 67 68 68 66 65 64 64 60 58 59 59 61 64 68 69 71 71 72 75 76 nan nan nan nan nan nan nan nan nan nan nan nan nan nan nan nan nan nan nan nan nan nan nan nan nan nan nan nan nan nan nan nan nan nan nan nan nan nan nan nan nan nan nan nan
66 66 65 66 69 72 74 74 74 72 71 70 69 67 68 68 68 65 64 63 63 63 64 66 69 72 73 75 77 78 nan nan nan nan nan nan nan nan nan nan nan nan nan nan nan nan nan nan nan nan nan nan nan nan nan nan nan nan nan nan nan nan nan nan nan nan nan nan nan nan nan nan nan nan
68 69 69 70 72 75 77 77 78 78 77 75 75 74 74 71 71 72 71 71 69 68 67 68 70 71 71 73 75 nan nan nan nan nan nan nan nan nan nan nan nan nan nan nan nan nan nan nan nan nan nan nan nan nan nan nan nan nan nan nan nan nan nan nan nan nan nan nan nan nan nan nan nan nan
65 69 71 71 73 76 78 79 78 78 80 79 78 78 76 74 74 74 75 77 74 73 73 74 73 70 68 67 nan nan nan nan nan nan nan nan nan nan nan nan nan nan nan nan nan nan nan nan nan nan nan nan nan nan nan nan nan nan nan nan nan nan nan nan nan nan nan nan nan nan nan nan nan nan
61 66 69 70 71 73 75 77 78 80 81 82 82 80 78 77 77 76 77 77 77 78 79 78 75 72 70 nan nan nan nan nan nan nan nan nan nan nan nan nan nan nan nan nan nan nan nan nan nan nan nan nan nan nan nan nan nan nan nan nan nan nan nan nan nan nan nan nan nan nan nan nan nan nan
59 62 65 67 68 70 72 73 75 77 80 82 84 83 81 80 80 80 78 76 78 80 79 75 72 70 68 nan nan nan nan nan nan nan nan nan nan nan nan nan nan nan nan nan nan nan nan nan nan nan nan nan nan nan nan nan nan nan nan nan nan nan nan nan nan nan nan nan nan nan nan nan nan nan
57 57 60 62 66 69 71 71 72 74 78 82 86 86 84 83 82 80 79 77 77 78 75 71 67 64 nan nan nan nan nan nan nan nan nan nan nan nan nan nan nan nan nan nan nan nan nan nan nan nan nan nan nan nan nan nan nan nan nan nan nan nan nan nan nan nan nan nan nan nan nan nan nan nan
nan nan 54 57 64 69 71 73 74 76 78 83 87 87 86 85 84 81 76 75 76 77 74 69 66 nan nan nan nan nan nan nan nan nan nan nan nan nan nan nan nan nan nan nan nan nan nan nan nan nan nan nan nan nan nan nan nan nan nan nan nan nan nan nan nan nan nan nan nan nan nan nan nan nan
nan nan nan 57 62 68 72 75 78 80 83 86 85 83 83 84 81 82 78 75 73 75 nan nan nan nan nan nan nan nan nan nan nan nan nan nan nan nan nan nan nan nan nan nan nan nan nan nan nan nan nan nan nan nan nan nan nan nan nan nan nan nan nan nan nan nan nan nan nan nan nan nan nan nan
nan nan nan nan 63 70 76 80 82 85 86 83 79 80 81 81 79 78 74 71 71 nan nan nan nan nan nan nan nan nan nan nan nan nan nan nan nan nan nan nan nan nan nan nan nan nan nan nan nan nan nan nan nan nan nan nan nan nan nan nan nan nan nan nan nan nan nan nan nan nan nan nan nan nan
nan nan nan nan nan 70 76 82 85 83 79 72 70 73 77 77 73 70 70 69 69 nan nan nan nan nan nan nan nan nan nan nan nan nan nan nan nan nan nan nan nan nan nan nan nan nan nan nan nan nan nan nan nan nan nan nan nan nan nan nan nan nan nan nan nan nan nan nan nan nan nan nan nan nan
nan nan nan nan 63 67 72 nan 71 63 58 58 61 67 69 66 61 60 63 64 nan nan nan nan nan nan nan nan nan nan nan nan nan nan nan nan nan nan nan nan nan nan nan nan nan nan nan nan nan nan nan nan nan nan nan nan nan nan nan nan nan nan nan nan nan nan nan nan nan nan nan nan nan nan
Wind_Direction
352 1 6 6 15 4 6 5 358 351 349 339 344 344 351 2 7 353 354 nan nan nan nan nan nan nan 333 336 338 335 339 327 327 332 nan 328 328 331 336 337 339 341 341 342 342 341 340 339 337 334 332 329 326 323 318 314 309 305 302 300 300 299 297 295 295 295 293 291 286 280 279 278 277 275
345 353 358 358 5 8 3 1 358 340 341 342 342 343 345 349 353 351 354 342 nan nan nan nan nan 322 333 331 337 332 340 319 334 333 332 334 331 330 nan 336 339 341 342 342 340 nan 339 337 335 332 330 329 326 324 319 314 310 306 304 303 303 303 301 299 297 295 294 292 288 282 276 272 271 271
340 347 355 353 359 2 4 358 356 341 341 345 342 340 342 342 347 350 350 349 338 nan nan nan 319 328 330 337 333 333 335 325 nan 336 331 333 322 330 332 nan nan 341 341 nan nan nan nan nan nan nan 332 331 329 326 321 316 311 307 305 304 304 304 303 300 296 294 291 290 288 285 280 274 270 268
333 344 352 350 354 356 359 359 353 347 344 346 343 340 338 339 340 345 347 353 340 335 nan nan nan 325 327 331 332 329 332 322 nan 334 333 323 nan nan 330 nan nan nan nan nan nan nan nan nan nan nan nan 334 332 329 324 319 314 311 308 306 305 304 303 302 300 297 293 290 288 286 282 277 271 266
328 338 346 349 351 352 356 355 351 347 345 346 342 338 336 339 340 341 345 346 343 332 336 nan 326 326 324 326 330 329 327 323 327 nan 332 326 330 nan nan 332 nan nan nan nan nan nan nan nan nan nan nan 336 335 332 328 325 321 318 314 309 305 304 302 301 300 298 295 292 290 288 285 279 272 265
320 328 339 348 347 350 355 354 350 346 342 344 342 337 336 338 336 338 338 341 339 335 329 326 326 319 nan 323 324 327 327 326 326 nan 331 330 331 332 nan nan 333 nan nan nan nan nan nan nan nan nan nan nan 336 336 334 331 327 324 320 315 311 308 306 304 301 299 296 292 288 286 284 281 276 269
318 323 331 343 344 342 351 354 350 347 343 340 340 336 333 335 333 330 334 333 336 336 329 326 325 320 316 nan 319 324 324 325 327 329 331 331 331 331 332 332 nan nan nan nan nan nan nan nan nan nan nan nan nan nan nan nan nan 328 324 nan nan nan nan nan nan nan nan nan nan 285 283 282 279 274
316 320 322 333 339 338 343 347 347 345 342 338 334 337 330 330 331 326 328 333 332 331 333 326 329 324 321 319 316 320 322 327 326 329 329 332 333 333 330 331 333 331 nan nan nan nan nan nan nan nan nan nan nan nan nan nan nan nan nan nan nan nan nan nan nan nan nan nan nan nan nan nan nan nan
309 314 317 321 328 332 335 340 344 342 344 339 336 337 332 329 329 327 327 331 333 334 335 333 331 328 319 319 318 319 323 326 327 328 332 332 333 332 332 329 332 329 nan nan nan nan nan nan nan nan nan nan nan nan nan nan nan nan nan nan nan nan nan nan nan nan nan nan nan nan nan nan nan nan
305 309 313 314 319 325 330 334 339 339 340 336 336 336 334 330 328 330 329 329 332 336 337 338 336 337 334 328 327 325 326 328 328 329 332 334 333 330 330 332 330 328 333 337 338 nan nan nan nan nan nan nan nan nan nan nan nan nan nan nan nan nan nan nan nan nan nan nan nan nan nan nan nan nan
304 307 309 310 314 319 323 328 333 334 333 331 332 330 329 327 325 326 327 327 332 336 338 341 342 340 338 334 331 328 329 331 331 331 332 333 331 328 328 330 332 333 336 338 337 342 345 340 nan nan nan nan nan nan nan nan nan nan nan nan nan nan nan nan nan nan nan nan nan nan nan nan nan nan
303 307 309 311 312 314 314 319 323 327 326 321 324 322 321 322 323 323 324 327 330 334 338 340 341 341 337 334 331 326 328 330 333 333 332 332 329 324 319 321 329 336 332 333 335 340 344 nan 346 nan nan nan nan nan nan nan nan nan nan nan nan nan nan nan nan nan nan nan nan nan nan nan nan nan
300 303 306 310 312 309 308 315 314 321 318 316 317 316 318 319 320 321 322 325 328 331 335 338 339 339 337 334 331 329 329 331 333 331 332 331 329 326 325 329 336 333 332 331 332 nan nan nan nan nan 340 342 nan nan nan 349 nan nan nan nan nan nan nan nan nan nan nan nan nan nan nan nan nan nan
301 305 306 306 313 307 307 306 310 311 315 319 314 312 314 317 318 320 321 322 325 328 332 335 337 338 337 334 332 331 330 328 329 331 330 332 329 327 327 326 327 333 332 330 331 334 337 nan nan nan nan nan nan nan 336 nan nan nan nan nan nan nan nan nan nan nan nan nan nan nan nan nan nan nan
295 298 303 301 303 301 302 302 307 304 310 316 315 313 316 316 319 320 321 321 324 326 329 331 334 336 335 333 330 329 328 328 328 330 329 330 329 328 327 326 321 324 328 328 330 335 337 nan nan nan nan nan nan nan nan nan nan nan nan nan nan nan nan nan nan nan nan nan nan nan nan nan nan nan
290 294 297 299 296 298 299 298 295 301 305 311 313 311 313 319 325 323 319 319 321 324 325 328 332 333 332 332 330 328 327 326 328 328 328 330 330 329 328 326 326 321 325 326 330 336 nan nan nan nan nan nan nan nan nan nan nan nan nan nan nan nan nan nan nan nan nan nan nan nan nan nan nan nan
293 289 291 294 295 295 304 300 298 296 298 305 314 312 311 317 323 324 322 318 319 320 323 326 329 331 330 332 330 328 326 324 327 327 328 329 330 329 327 324 nan 323 325 324 329 nan nan nan nan nan nan nan nan nan nan nan nan nan nan nan nan nan nan nan nan nan nan nan nan nan nan nan nan nan
299 297 293 294 295 296 296 303 305 300 300 297 299 303 302 307 315 320 322 322 321 316 318 324 328 328 329 327 325 326 326 327 327 325 326 327 329 328 327 323 322 322 323 nan nan nan nan nan nan nan nan nan nan nan nan nan nan nan nan nan nan nan nan nan nan nan nan nan nan nan nan nan nan nan
306 302 298 299 299 299 301 306 309 302 300 298 297 302 308 311 313 315 319 320 319 320 321 321 326 327 327 326 325 326 327 328 326 324 324 325 327 325 322 321 320 324 nan nan nan nan nan nan nan nan nan nan nan nan nan nan nan nan nan nan nan nan nan nan nan nan nan nan nan nan nan nan nan nan
305 304 302 301 302 300 302 305 311 304 297 297 299 302 304 307 308 311 314 316 316 319 320 320 322 323 327 325 325 326 330 327 324 322 320 318 319 321 321 nan nan nan nan nan nan nan nan nan nan nan nan nan nan nan nan nan nan nan nan nan nan nan nan nan nan nan nan nan nan nan nan nan nan nan
309 305 306 307 301 302 301 301 308 304 299 297 299 299 302 302 303 304 304 309 313 313 313 309 309 296 307 312 310 314 321 324 323 322 322 321 322 nan nan nan nan nan nan nan nan nan nan nan nan nan nan nan nan nan nan nan nan nan nan nan nan nan nan nan nan nan nan nan nan nan nan nan nan nan
304 306 309 308 308 304 302 301 309 305 300 297 298 299 300 300 300 300 301 298 302 308 297 294 298 301 302 305 306 308 310 314 318 322 322 322 nan nan nan nan nan nan nan nan nan nan nan nan nan nan nan nan nan nan nan nan nan nan nan nan nan nan nan nan nan nan nan nan nan nan nan nan nan nan
299 298 297 306 307 306 301 304 309 308 303 297 297 298 296 297 300 299 299 298 300 296 299 295 295 296 299 302 304 304 307 311 316 319 320 321 nan nan nan nan nan nan nan nan nan nan nan nan nan nan nan nan nan nan nan nan nan nan nan nan nan nan nan nan nan nan nan nan nan nan nan nan nan nan
300 297 294 298 310 310 301 303 310 309 308 299 295 293 293 295 298 295 294 295 294 298 301 300 300 300 301 303 302 302 304 307 313 315 316 nan nan nan nan nan nan nan nan nan nan nan nan nan nan nan nan nan nan nan nan nan nan nan nan nan nan nan nan nan nan nan nan nan nan nan nan nan nan nan
303 302 297 291 302 307 300 304 309 309 308 302 292 293 292 295 292 290 291 288 292 295 296 297 298 299 300 302 302 302 304 305 309 312 312 nan nan nan nan nan nan nan nan nan nan nan nan nan nan nan nan nan nan nan nan nan nan nan nan nan nan nan nan nan nan nan nan nan nan nan nan nan nan nan
308 307 299 294 297 306 300 303 305 306 305 304 291 293 295 292 290 289 287 284 288 289 293 293 295 300 302 304 304 303 303 304 306 308 309 nan nan nan nan nan nan nan nan nan nan nan nan nan nan nan nan nan nan nan nan nan nan nan nan nan nan nan nan nan nan nan nan nan nan 340 nan nan nan nan
307 303 297 298 297 303 302 300 302 302 305 299 292 294 291 288 289 287 285 284 286 288 291 293 295 299 302 302 303 302 301 302 303 304 nan nan nan nan nan nan nan nan nan nan nan nan nan nan nan nan nan nan nan nan nan nan nan nan nan nan nan nan nan nan nan nan nan nan nan nan nan nan nan nan
303 301 299 297 295 301 302 301 301 301 302 298 301 293 292 287 286 283 281 283 286 289 291 294 296 299 302 302 301 300 299 nan 300 nan nan nan nan nan nan nan nan nan nan nan nan nan nan nan nan nan nan nan nan nan nan nan nan nan nan nan nan nan nan nan nan nan nan nan nan nan nan nan nan 343
302 299 297 296 294 303 302 300 298 297 304 307 304 297 292 288 282 285 283 285 285 289 291 293 294 296 296 297 294 295 296 nan nan nan nan nan nan nan nan nan nan nan nan nan nan nan nan nan nan nan nan nan nan nan nan nan nan nan nan nan nan nan nan nan nan nan nan nan nan nan nan nan nan nan
302 295 284 286 292 297 295 288 283 281 288 297 299 295 291 286 286 286 286 286 288 289 289 292 294 295 293 292 291 291 nan nan nan nan nan nan nan nan nan nan nan nan nan nan nan nan nan nan nan nan nan nan nan nan nan nan nan nan nan nan nan nan nan nan nan nan nan nan nan nan nan nan nan nan
293 295 286 280 284 284 290 292 291 290 290 288 286 285 285 287 287 287 287 288 289 289 288 290 292 293 292 292 290 290 292 nan nan nan nan nan nan nan nan nan nan nan nan nan nan nan nan nan nan nan nan nan nan nan nan nan nan nan nan nan nan nan nan nan nan nan nan nan nan nan nan nan nan nan
290 282 271 272 275 280 283 285 283 285 285 286 283 282 282 284 285 286 288 287 285 285 286 286 287 286 287 290 288 290 291 nan nan nan nan nan nan nan nan nan nan nan nan nan nan nan nan nan nan nan nan nan nan nan nan nan nan nan nan nan nan nan nan nan nan nan nan nan nan nan nan nan nan nan
288 279 279 281 285 288 290 290 287 287 286 287 286 285 284 284 281 282 286 287 285 283 283 284 284 285 286 287 285 287 nan nan nan nan nan nan nan nan nan nan nan nan nan nan nan nan nan nan nan nan nan nan nan nan nan nan nan nan nan nan nan nan nan nan nan nan nan nan nan nan nan nan nan nan
287 285 288 290 291 291 290 287 287 286 284 284 284 286 287 285 282 284 284 284 282 282 282 282 286 286 287 288 287 287 nan nan nan nan nan nan nan nan nan nan nan nan nan nan nan nan nan nan nan nan nan nan nan nan nan nan nan nan nan nan nan nan nan nan nan nan nan nan nan nan nan nan nan nan
289 289 290 292 292 293 291 289 285 287 287 288 287 286 285 286 285 284 282 282 281 280 280 281 282 283 286 287 287 287 nan nan nan nan nan nan nan nan nan nan nan nan nan nan nan nan nan nan nan nan nan nan nan nan nan nan nan nan nan nan nan nan nan nan nan nan nan nan nan nan nan nan nan nan
293 295 296 294 293 293 294 294 294 293 291 290 288 286 285 286 285 286 286 284 282 280 278 277 278 279 282 286 287 nan nan nan nan nan nan nan nan nan nan nan nan nan nan nan nan nan nan nan nan nan nan nan nan nan nan nan nan nan nan nan nan nan nan nan nan nan nan nan nan nan nan nan nan nan
297 297 297 295 294 294 296 296 297 296 295 293 291 287 286 286 284 284 285 285 282 280 279 277 276 280 283 287 nan nan nan nan nan nan nan nan nan nan nan nan nan nan nan nan nan nan nan nan nan nan nan nan nan nan nan nan nan nan nan nan nan nan nan nan nan nan nan nan nan nan nan nan nan nan
301 299 297 297 296 296 296 297 297 295 294 295 294 291 287 286 282 280 279 280 280 280 280 278 277 281 285 nan nan nan nan nan nan nan nan nan nan nan nan nan nan nan nan nan nan nan nan nan nan nan nan nan nan nan nan nan nan nan nan nan nan nan nan nan nan nan nan nan nan nan nan nan nan nan
300 300 298 298 298 297 298 297 296 295 294 293 292 290 288 284 281 280 279 278 277 279 280 278 278 281 285 nan nan nan nan nan nan nan nan nan nan nan nan nan nan nan nan nan nan nan nan nan nan nan nan nan nan nan nan nan nan nan nan nan nan nan nan nan nan nan nan nan nan nan nan nan nan nan
300 299 298 298 299 299 299 298 297 296 294 292 290 287 285 283 282 281 280 278 276 277 277 275 276 280 nan nan nan nan nan nan nan nan nan nan nan nan nan nan nan nan nan nan nan nan nan nan nan nan nan nan nan nan nan nan nan nan nan nan nan nan nan nan nan nan nan nan nan nan nan nan nan nan
nan nan 298 299 299 300 302 302 301 297 294 292 289 286 283 282 280 278 277 277 277 276 275 273 274 nan nan nan nan nan nan nan nan nan nan nan nan nan nan nan nan nan nan nan nan nan nan nan nan nan nan nan nan nan nan nan nan nan nan nan nan nan nan nan nan nan nan nan nan nan nan nan nan nan
nan nan nan 301 302 302 304 304 301 298 295 291 287 283 280 278 276 276 275 276 276 274 nan nan nan nan nan nan nan nan nan nan nan nan nan nan nan nan nan nan nan nan nan nan nan nan nan nan nan nan nan nan nan nan nan nan nan nan nan nan nan nan nan nan nan nan nan nan nan nan nan nan nan nan
nan nan nan nan 307 305 304 302 298 295 291 286 281 277 274 271 270 273 273 273 272 nan nan nan nan nan nan nan nan nan nan nan nan nan nan nan nan nan nan nan nan nan nan nan nan nan nan nan nan nan nan nan nan nan nan nan nan nan nan nan nan nan nan nan nan nan nan nan nan nan nan nan nan nan
nan nan nan nan nan 306 303 300 296 292 288 281 274 273 273 270 268 270 271 270 269 nan nan nan nan nan nan nan nan nan nan nan nan nan nan nan nan nan nan nan nan nan nan nan nan nan nan nan nan nan nan nan nan nan nan nan nan nan nan nan nan nan nan nan nan nan nan nan nan nan nan nan nan nan
nan nan nan nan 309 310 308 nan 296 287 277 271 270 273 273 271 269 268 266 266 nan nan nan nan nan nan nan nan nan nan nan nan nan nan nan nan nan nan nan nan nan nan nan nan nan nan nan nan nan nan nan nan nan nan nan nan nan nan nan nan nan nan nan nan nan nan nan nan nan nan nan nan nan nan